Weather History for Nueva Ocotepeque, Honduras

Change the Weather History Date:

Friday, February 22, 2013

  Actual Average (MHTG) Record (MHTG)
Temperature  
Mean Temperature 75 °F -  
Max Temperature 92 °F 81 °F 89 °F (1998)
Min Temperature 58 °F 58 °F 50 °F (2007)
Cooling Degree Days 10    
Growing Degree Days 25 (Base 50)    
Moisture  
Dew Point 56 °F    
Average Humidity 50    
Maximum Humidity 91    
Minimum Humidity 25    
Precipitation  
Precipitation 0.00 in - - ()
Sea Level Pressure  
Sea Level Pressure 29.83 in    
Wind  
Wind Speed 3 mph ()    
Max Wind Speed 9 mph    
Max Gust Speed 17 mph    
Visibility 7.0 miles    
Events      
Averages and records for this station are not official NWS values.
T = Trace of Precipitation, MM = Missing Value Source: Averaged Metar Reports

Daily Weather History Graph

Daily Weather History Graph

Search for Another Location

Airport:

Trip Planner

Search our weather history database for the weather conditions in past years. The results will help you decide how hot, cold, wet, or windy it might be!

Date:

Astronomy

Feb. 22, 2013 Rise Set
Actual Time 6:10 AM CST 5:57 PM CST
Civil Twilight 5:49 AM CST 6:18 PM CST
Nautical Twilight 5:24 AM CST 6:43 PM CST
Astronomical Twilight 4:59 AM CST 7:08 PM CST
Moon 3:25 PM CST (2/22) 3:36 AM CST (2/22)
Length of Visible Light 12h 29m
Length of Day
11h 46m
Waxing Gibbous, 90% of the Moon is Illuminated
Feb 22
Waxing Gibbous
Feb 25
Full
Mar 4
Last Quarter
Mar 11
New
Mar 19
First Quarter

Hourly Weather History & Observations

Time (CST) Temp. Heat Index Dew Point Humidity Pressure Visibility Wind Dir Wind Speed Gust Speed Precip Events Conditions
12:58 AM 70.2 °F - 56.5 °F 62% 29.81 in 6.2 mi NNE 2.3 mph - N/A   Clear
1:58 AM 67.6 °F - 56.3 °F 67% 29.79 in 6.2 mi Calm Calm - N/A   Clear
2:58 AM 64.8 °F - 56.5 °F 74% 29.80 in 6.2 mi SSE 2.3 mph - N/A   Clear
3:58 AM 63.3 °F - 55.9 °F 77% 29.81 in 6.2 mi South 2.3 mph - N/A   Clear
4:58 AM 63.0 °F - 56.1 °F 78% 29.83 in 6.2 mi Variable 1.2 mph - N/A   Clear
5:58 AM 62.1 °F - 55.9 °F 80% 29.88 in 6.2 mi Variable 2.3 mph - N/A   Clear
6:00 AM 60 °F - 58 °F 91%  in 11 mi Calm Calm - -   Haze
6:58 AM 63.3 °F - 56.1 °F 77% 29.91 in 6.2 mi NNW 3.5 mph - N/A   Clear
7:58 AM 69.4 °F - 57.4 °F 65% 29.92 in 6.2 mi Variable 1.2 mph - N/A   Clear
8:58 AM 76.6 °F - 58.5 °F 53% 29.93 in 6.2 mi Variable 4.6 mph - N/A   Clear
9:00 AM 72 °F - 62 °F 64%  in 11 mi Calm Calm - -   Haze
9:58 AM 81.9 °F 81.4 °F 56.1 °F 41% 29.91 in 6.2 mi WNW 6.9 mph - N/A   Clear
10:58 AM 85.1 °F 83.6 °F 54.5 °F 35% 29.86 in 6.2 mi East 5.8 mph - N/A   Clear
11:58 AM 87.3 °F 85.3 °F 53.6 °F 32% 29.84 in 6.2 mi Variable 1.2 mph - N/A   Clear
12:00 PM 89 °F - 58 °F 26%  in 11 mi South 2.3 mph - -   Haze
12:58 PM 91.4 °F - 51.8 °F 26% 29.80 in 6.2 mi NW 4.6 mph - N/A   Clear
1:58 PM 92.8 °F - 52.3 °F 25% 29.76 in 6.2 mi Variable 6.9 mph 17.3 mph N/A   Clear
2:58 PM 94.3 °F 91.8 °F 53.1 °F 25% 29.72 in 6.2 mi NNW 9.2 mph - N/A   Clear
3:00 PM 91 °F - 61 °F 26%  in 11 mi South 2.3 mph - -   Haze
3:58 PM 92.7 °F 90.4 °F 54.1 °F 27% 29.72 in 6.2 mi North 9.2 mph 17.3 mph N/A   Clear
4:58 PM 91.6 °F 89.3 °F 54.3 °F 28% 29.73 in 6.2 mi East 9.2 mph - N/A   Mostly Cloudy
5:58 PM 86.2 °F 84.9 °F 55.9 °F 36% 29.78 in 6.2 mi Variable 2.3 mph - N/A   Overcast
6:00 PM 84 °F - 56 °F 28%  in 11 mi South 2.3 mph - -   Haze
6:58 PM 83.1 °F 82.4 °F 56.5 °F 40% 29.81 in 6.2 mi ESE 8.1 mph - N/A   Mostly Cloudy
7:58 PM 79.5 °F - 56.3 °F 45% 29.84 in 6.2 mi ESE 8.1 mph - N/A   Partly Cloudy
8:58 PM 78.3 °F - 57.4 °F 49% 29.85 in 6.2 mi ESE 8.1 mph - N/A   Clear
9:58 PM 77.0 °F - 56.8 °F 50% 29.85 in 6.2 mi East 6.9 mph - N/A   Clear
10:58 PM 75.0 °F - 56.7 °F 53% 29.85 in 6.2 mi ESE 6.9 mph - N/A   Clear
11:58 PM 71.1 °F - 56.8 °F 61% 29.84 in 6.2 mi ESE 4.6 mph - N/A   Clear